This demonstration page uses our WeatherBlox Daily Observations layout. Learn more.

41.86663, -103.66717

Hourly Observations for September 21, 2020

Temp ( °F °C ) Dew Point ( °F °C ) Humidity (%) Winds ( mph kmh ) Pressure ( in mb ) Visibility ( mi km ) Precip ( " mm )
12:53 am 00:53 Clear 55 12.8 45 7.2 69 69 NNE 7 11 29.98 1015 10 16.0934 0 0
1:53 am 01:53 Clear 50 10 44 6.7 80 80 NW 6 9 29.99 1016 10 16.0934 0 0
2:53 am 02:53 Clear 48 8.9 42 5.6 80 80 NW 7 11 30 1016 10 16.0934 0 0
3:53 am 03:53 Clear 48 8.9 41 5 77 77 NW 6 9 30.01 1016 10 16.0934 0 0
4:53 am 04:53 Clear 49 9.4 40 4.4 71 71 NW 8 13 30.02 1017 10 16.0934 0 0
5:53 am 05:53 Clear 49 9.4 39 3.9 69 69 NW 12 19 30.03 1017 10 16.0934 0 0
6:53 am 06:53 Sunny 48 8.9 39 3.9 71 71 WNW 3 6 30.04 1017 10 16.0934 0 0
7:53 am 07:53 Sunny 51 10.6 40 4.4 66 66 WNW 5 7 30.07 1018 8 12.87472 0 0
8:53 am 08:53 Sunny 61 16.1 43 6.1 52 52 undefined N/A 30.06 1018 10 16.0934 0 0
9:53 am 09:53 Sunny 66 18.9 44 6.7 45 45 W 6 9 30.07 1018 10 16.0934 0 0
10:53 am 10:53 Sunny 74 23.3 42 5.6 32 32 NW 10 17 30.05 1018 10 16.0934 0 0
11:53 am 11:53 Sunny 79 26.1 44 6.7 29 29 VRB 3 6 30.03 1017 10 16.0934 0 0
12:53 pm 12:53 Sunny 81 27.2 45 7.2 28 28 W 5 7 30.02 1017 10 16.0934 0 0
1:53 pm 13:53 Sunny 85 29.4 43 6.1 23 23 WNW 3 6 30 1016 10 16.0934 0 0
2:53 pm 14:53 Sunny 85 29.4 38 3.3 19 19 SSW 5 7 29.98 1015 10 16.0934 0 0
3:53 pm 15:53 Sunny 87 30.6 35 1.7 16 16 VRB 3 6 29.96 1015 10 16.0934 0 0
4:53 pm 16:53 Sunny 85 29.4 34 1.1 16 16 SSW 6 9 29.96 1015 10 16.0934 0 0
5:53 pm 17:53 Sunny 82 27.8 38 3.3 21 21 SSE 6 9 29.96 1015 10 16.0934 0 0
6:53 pm 18:53 Clear 72 22.2 41 5 33 33 Calm 30 1016 10 16.0934 0 0
7:53 pm 19:53 Clear 65 18.3 40 4.4 40 40 undefined N/A 30.01 1016 9 14.48406 0 0
8:53 pm 20:53 Clear 65 18.3 40 4.4 40 40 SE 3 6 30.01 1016 9 14.48406 0 0
9:53 pm 21:53 Clear 60 15.6 39 3.9 46 46 NE 5 7 30.01 1016 10 16.0934 0 0
10:53 pm 22:53 Clear 60 15.6 37 2.8 42 42 N 3 6 29.99 1016 10 16.0934 0 0
11:53 pm 23:53 Clear 58 14.4 40 4.4 51 51 ENE 6 9 29.98 1015 10 16.0934 0 0

Powered by AerisWeather